Wetbulb
61.19 61.83 60.06 55.61 43.57 41.37 37.00 42.44 46.20 46.07 46.80 50.13 51.35 50.89 49.50 56.60 60.27 55.14 66.62 71.10 71.20 71.46 72.68 72.88 72.48 73.18 73.26 73.46 73.38 73.67 73.93 74.06 73.97 73.55 73.44 73.52 73.22 73.00 72.72 72.46 72.17 72.23 71.95 70.76 70.46 70.12 70.63 70.85 70.83
60.06 61.45 57.28 49.56 40.47 35.77 39.10 45.22 44.58 46.82 51.42 53.17 53.60 52.80 54.16 58.91 64.96 66.25 67.34 71.05 71.38 72.12 72.54 72.54 72.23 72.69 73.04 73.06 73.09 73.55 74.16 74.05 73.69 73.50 73.34 73.38 73.04 72.98 72.66 72.35 71.99 72.03 72.40 71.19 70.55 69.82 69.57 69.72 69.80
59.69 61.48 49.03 44.36 39.94 37.53 39.52 45.83 44.72 47.17 50.23 51.48 52.62 54.73 58.03 61.90 66.53 66.10 69.72 71.35 71.55 71.41 72.77 72.92 71.95 72.32 72.70 72.93 72.99 73.29 73.50 73.16 73.04 72.95 73.30 73.13 73.09 72.87 72.53 72.27 72.10 72.87 73.14 71.77 70.60 69.89 69.25 69.24 68.35
57.43 54.58 50.25 41.49 40.13 45.20 45.62 47.49 48.39 49.30 50.18 52.10 52.14 52.28 63.16 67.30 67.42 68.86 70.54 71.10 70.49 71.19 72.62 71.65 71.28 71.85 72.53 72.91 73.01 73.19 72.82 72.47 72.36 72.43 72.79 73.20 72.98 72.59 72.31 72.04 72.52 72.94 72.20 70.94 70.21 69.40 69.14 68.04 67.54
55.04 51.18 42.21 40.27 42.27 46.97 49.63 50.03 50.30 49.30 50.30 52.66 50.14 51.52 61.15 66.94 68.94 69.71 69.30 70.93 69.63 70.87 71.64 71.93 70.47 71.70 72.64 73.19 73.11 72.50 72.33 72.09 72.00 72.17 72.38 72.66 72.67 72.27 72.06 72.12 72.24 71.90 71.01 69.90 69.02 69.29 68.72 67.98 67.39
48.77 48.76 39.98 37.87 42.28 47.98 50.24 50.96 51.04 51.18 51.37 52.07 50.51 51.85 59.38 66.37 67.54 68.07 69.42 69.38 70.85 70.73 71.46 71.86 71.90 71.83 72.03 72.49 71.99 71.44 71.30 71.35 71.28 71.55 71.77 71.89 71.64 71.50 71.79 71.83 71.68 70.93 69.81 68.41 68.19 68.51 68.74 68.15 67.59
45.87 42.59 39.49 41.31 44.02 46.24 48.96 52.07 50.99 50.87 50.35 50.59 50.85 49.55 64.81 66.49 67.49 68.44 69.09 70.32 71.24 71.33 70.84 71.34 71.85 72.45 71.32 70.66 70.39 70.07 70.25 70.50 70.52 70.59 70.62 70.29 70.07 70.43 71.12 71.26 70.95 69.84 68.66 67.65 67.11 67.44 67.58 67.86 67.42
47.20 43.94 40.62 41.83 42.81 43.89 49.98 50.90 51.47 49.88 48.81 54.95 53.60 51.70 62.19 66.39 68.58 67.94 70.44 70.56 70.52 70.56 70.47 70.19 70.52 71.58 71.92 71.05 69.36 69.22 69.43 69.34 69.60 69.94 69.41 68.77 69.10 69.74 70.17 70.12 69.98 69.16 68.28 67.12 66.36 66.00 66.55 67.06 66.61
49.80 39.85 37.57 41.58 44.04 46.71 52.02 49.90 52.78 52.59 50.55 52.50 53.15 64.26 67.34 68.64 68.80 66.86 68.58 69.42 69.57 70.01 70.02 70.43 70.34 71.39 71.35 71.03 70.14 69.34 69.62 69.18 69.00 69.31 68.71 67.66 68.55 68.96 69.74 69.56 69.16 68.72 67.80 66.78 65.79 65.34 65.40 65.68 65.84
45.62 38.90 40.60 46.58 47.57 47.34 49.78 47.44 49.33 49.85 49.91 51.68 53.24 62.95 65.96 66.98 66.55 65.84 65.28 67.36 68.16 68.27 69.29 70.56 70.47 71.00 70.86 71.26 70.36 69.27 69.90 69.47 69.11 68.83 68.15 68.12 67.54 67.57 69.00 68.86 68.57 68.35 67.51 66.35 65.22 64.73 64.43 64.76 63.64
43.05 42.63 46.39 48.41 49.23 49.44 47.80 47.41 49.27 47.77 46.75 51.80 51.74 53.30 57.41 63.09 65.00 65.35 66.21 66.73 67.92 68.42 69.22 70.13 70.60 71.09 70.46 70.20 69.83 69.17 68.88 68.41 68.28 67.93 67.45 65.78 67.29 67.12 66.19 67.40 66.98 65.87 66.57 63.50 62.76 61.75 60.58 59.88 60.38
39.18 44.04 45.39 47.13 48.77 47.53 45.70 47.45 47.17 46.78 48.39 53.24 54.23 55.15 54.20 59.73 62.81 65.22 65.66 67.40 67.29 67.96 68.30 69.79 70.51 70.81 70.36 69.98 69.56 68.87 67.88 67.78 67.39 67.31 66.06 63.43 65.61 64.58 65.99 66.15 65.58 64.50 64.11 62.22 60.48 59.15 58.47 59.00 60.11
38.61 41.08 42.06 43.19 44.16 44.10 46.75 45.13 46.24 46.80 48.96 52.17 53.82 53.80 52.34 53.06 55.25 61.86 65.29 68.33 67.93 67.73 67.74 69.09 70.16 70.59 70.44 69.53 69.50 68.57 67.23 67.18 66.79 66.93 65.77 64.42 64.16 64.76 65.89 64.73 64.32 63.61 63.06 62.01 60.24 59.47 58.78 59.42 61.03
40.45 40.51 40.61 41.82 41.83 42.82 43.45 44.03 44.44 47.48 49.47 50.95 52.50 52.14 50.58 51.82 52.84 54.29 56.76 58.17 67.68 68.26 67.55 68.60 69.57 70.70 70.28 69.41 69.12 68.08 67.07 66.90 66.54 66.88 65.19 65.04 64.40 64.61 65.85 64.47 63.29 62.49 62.63 61.88 60.64 59.52 58.56 59.35 61.53
40.53 36.38 38.59 39.54 40.05 40.18 42.46 40.57 41.53 45.89 48.01 48.21 49.63 51.55 52.00 51.16 52.85 52.93 55.11 55.80 67.84 68.44 68.37 67.58 68.64 70.34 69.62 68.13 68.01 66.78 66.40 66.91 66.38 66.91 65.14 65.46 65.11 64.59 63.58 64.03 62.87 63.24 62.81 61.08 60.35 59.75 59.90 60.76 62.14
36.61 35.44 29.89 36.74 39.39 40.65 38.85 34.60 41.56 45.70 45.39 45.68 47.58 49.34 50.81 51.56 51.63 51.94 53.69 55.10 56.18 67.99 68.31 67.38 69.02 69.06 68.84 66.90 66.47 66.22 65.99 66.36 65.84 67.09 66.32 65.43 66.64 65.57 64.02 63.20 62.65 62.66 62.70 61.45 61.02 60.94 60.61 60.50 61.27
33.53 27.67 31.42 35.21 39.96 38.96 36.13 33.98 38.97 41.68 43.11 43.01 45.30 47.45 48.21 49.27 50.34 51.88 52.99 54.63 55.67 58.08 68.26 67.73 68.05 67.82 67.60 67.11 65.83 66.25 66.14 65.93 65.69 66.95 66.90 65.31 67.18 66.14 64.72 63.37 62.67 62.55 62.44 62.11 62.00 60.26 60.31 60.16 61.38
29.74 30.49 33.22 32.36 36.68 38.38 36.08 35.45 39.29 40.82 40.96 39.62 40.23 41.91 45.66 47.96 49.87 51.58 51.97 54.48 55.54 54.76 67.18 68.44 68.20 67.94 67.40 66.37 65.98 66.04 66.30 66.23 65.77 66.65 67.21 65.45 67.09 66.89 65.12 64.50 63.12 63.64 62.06 61.43 60.50 59.94 60.58 61.18 62.87
35.10 32.96 30.86 34.18 38.11 35.93 35.21 35.07 37.67 39.84 40.05 38.71 39.23 40.62 41.67 43.66 48.03 49.56 50.02 52.10 55.70 56.23 57.88 67.87 67.48 67.98 67.87 65.57 66.59 64.98 66.18 65.72 65.82 66.90 67.61 66.00 66.98 66.71 65.57 64.38 63.78 63.57 61.66 61.42 60.59 59.63 59.45 60.97 63.62
34.55 32.00 31.01 34.88 37.92 37.13 35.00 34.31 37.66 39.57 39.03 39.43 40.13 40.91 41.19 42.10 44.05 46.91 47.96 49.00 51.28 54.82 56.40 67.57 67.85 68.33 68.48 67.19 67.45 67.07 66.83 66.63 67.55 67.02 67.43 67.32 66.62 66.57 66.33 64.81 64.35 63.62 61.83 61.04 60.72 61.03 59.45 59.70 63.94
33.31 31.29 31.70 32.01 35.54 36.32 33.66 31.67 34.50 38.82 40.84 41.99 42.67 42.93 43.56 43.59 43.18 45.53 46.91 47.89 47.98 50.54 54.35 66.89 68.07 68.53 68.61 68.29 67.40 68.17 67.45 66.63 66.90 66.80 66.87 67.68 66.98 66.99 67.20 65.56 64.60 63.82 63.37 62.22 61.54 61.09 60.18 60.12 61.02
28.91 35.89 35.30 33.41 30.34 24.03 33.96 22.15 31.58 35.64 37.39 40.56 41.83 41.63 43.26 44.59 45.75 46.35 47.23 47.43 47.88 48.54 52.94 57.05 67.85 68.34 69.07 68.99 67.39 65.94 66.91 65.42 67.39 67.59 68.09 68.17 67.51 67.18 66.89 66.46 65.43 64.49 63.75 62.86 62.13 62.28 61.49 60.44 60.34
32.12 37.86 34.71 33.34 29.52 27.94 29.07 23.23 29.66 34.40 35.65 37.86 40.70 44.46 45.27 46.23 47.52 47.37 48.82 50.08 52.61 53.81 52.36 52.15 58.66 67.56 69.01 68.83 68.48 66.60 66.71 67.48 67.97 67.91 67.55 67.95 67.47 67.51 66.83 66.94 65.74 64.56 63.73 63.50 63.33 61.99 62.08 61.83 61.62
37.53 33.95 32.54 32.17 29.19 18.99 28.58 27.74 25.55 31.67 35.49 37.22 40.58 43.66 44.39 45.26 46.35 47.44 48.45 49.55 50.73 52.44 53.53 53.79 53.19 62.04 68.07 68.58 68.50 67.64 66.41 67.00 66.65 67.01 67.19 67.60 67.84 67.32 67.49 67.12 66.72 65.63 64.59 63.55 63.39 63.16 62.82 62.29 62.17
32.95 27.95 15.60 17.50 17.20 16.36 30.81 27.55 31.36 35.93 37.37 39.29 40.63 41.99 43.84 45.27 45.23 45.61 45.75 46.36 48.95 49.78 51.62 52.88 53.86 54.52 66.94 68.21 68.18 68.46 67.39 67.13 67.14 66.68 67.42 67.12 67.58 67.13 67.04 67.12 66.61 65.70 65.67 64.47 64.31 63.57 62.97 62.58 61.89
28.81 28.74 20.21 13.97 15.15 18.81 29.76 24.60 30.49 36.67 40.08 41.94 42.72 44.04 44.23 44.52 44.79 44.61 45.23 45.90 47.00 48.24 49.89 50.84 52.62 54.20 56.47 67.65 67.99 68.50 68.68 67.94 67.83 68.16 68.24 68.01 68.01 68.47 68.31 67.95 67.61 66.77 65.54 65.72 64.52 64.19 63.97 63.34 62.46
28.30 22.55 30.85 20.11 24.61 19.78 25.65 31.08 34.98 37.72 38.77 40.85 40.69 42.40 42.73 43.32 43.01 42.80 43.86 45.04 45.62 47.42 48.46 49.14 52.11 56.12 57.14 61.46 68.38 68.38 68.77 68.42 68.03 68.13 68.72 68.74 68.89 68.80 68.77 68.33 68.03 67.62 66.83 65.93 65.02 64.59 63.94 64.39 63.47
29.73 32.93 21.32 18.79 9.41 4.12 21.49 24.72 25.47 30.68 32.88 38.21 39.02 39.67 41.47 41.84 42.24 41.81 42.40 43.67 45.28 46.96 48.86 52.93 54.89 54.19 55.80 55.46 59.14 67.24 68.23 68.54 68.81 68.45 68.26 68.74 68.91 68.89 68.18 68.08 68.59 68.28 67.60 66.30 66.12 64.67 65.05 64.24 65.41
24.67 24.47 22.31 22.70 22.93 17.32 13.94 19.03 34.10 31.52 33.07 36.08 38.08 39.59 40.81 40.60 41.32 41.44 42.67 42.92 44.09 46.09 47.27 49.83 50.44 50.51 51.51 53.52 57.94 57.14 63.60 68.10 68.42 68.67 68.55 68.97 68.94 68.51 67.94 67.60 68.10 68.68 68.29 67.55 65.79 66.03 65.12 64.83 64.80
29.91 25.87 25.20 11.22 9.98 16.41 17.93 17.83 32.98 32.58 34.04 37.39 38.37 40.16 42.29 41.72 42.30 42.17 42.25 42.30 43.07 44.77 45.80 47.88 48.30 48.52 49.64 52.34 56.79 57.26 61.43 66.96 67.24 67.94 69.41 69.35 68.52 68.57 67.84 67.55 67.26 68.54 68.67 68.36 66.97 65.64 66.15 64.71 64.86
MSLP
1013.61 1012.96 1013.12 1013.30 1013.86 1013.16 1012.16 1009.65 1007.83 1006.81 1005.44 1004.84 1004.22 1004.67 1005.44 1005.45 1006.09 1008.02 1007.82 1008.33 1009.66 1010.87 1011.56 1012.19 1012.60 1013.35 1014.02 1014.78 1015.46 1015.98 1016.44 1016.81 1017.20 1017.37 1017.61 1017.87 1018.27 1018.63 1018.97 1019.24 1019.38 1019.49 1019.64 1019.90 1020.09 1020.17 1020.27 1020.48 1020.69
1013.77 1013.24 1013.11 1013.20 1013.53 1013.01 1011.14 1009.19 1007.67 1006.44 1005.31 1004.40 1003.94 1004.37 1005.28 1006.09 1006.05 1007.76 1008.60 1009.38 1009.45 1010.84 1011.71 1012.41 1012.81 1013.44 1013.96 1014.75 1015.45 1016.08 1016.58 1017.04 1017.55 1017.80 1017.99 1018.29 1018.67 1018.99 1019.29 1019.56 1019.78 1019.88 1020.03 1020.27 1020.39 1020.52 1020.65 1020.89 1021.15
1013.73 1013.62 1013.79 1013.43 1013.03 1011.96 1010.45 1008.63 1007.37 1006.01 1005.12 1004.87 1004.73 1004.47 1005.28 1006.50 1007.01 1007.59 1008.63 1009.80 1010.22 1011.03 1012.01 1012.66 1012.98 1013.58 1014.00 1014.71 1015.41 1016.08 1016.62 1017.20 1017.83 1018.18 1018.38 1018.68 1018.96 1019.34 1019.61 1019.87 1020.06 1020.25 1020.42 1020.57 1020.72 1020.83 1020.94 1021.21 1021.44
1013.86 1013.35 1013.51 1013.29 1012.78 1010.73 1009.96 1008.56 1006.99 1006.16 1005.54 1005.14 1005.30 1005.49 1006.04 1006.23 1006.72 1007.93 1009.41 1010.07 1010.59 1011.29 1012.33 1013.20 1013.46 1013.57 1014.38 1014.70 1015.46 1016.12 1016.70 1017.24 1017.93 1018.41 1018.69 1018.98 1019.23 1019.61 1019.93 1020.21 1020.36 1020.57 1020.81 1020.94 1021.05 1021.09 1021.16 1021.32 1021.55
1013.73 1013.76 1013.84 1013.33 1012.24 1010.28 1008.99 1007.61 1006.68 1006.10 1005.86 1005.90 1005.77 1006.40 1006.83 1006.86 1006.85 1007.91 1009.04 1009.90 1010.75 1011.89 1012.67 1013.50 1013.91 1014.06 1014.43 1014.94 1015.40 1016.12 1016.75 1017.30 1017.90 1018.49 1018.90 1019.25 1019.52 1019.89 1020.18 1020.46 1020.71 1020.90 1021.14 1021.29 1021.40 1021.41 1021.41 1021.42 1021.55
1014.24 1013.76 1014.04 1013.55 1012.04 1010.07 1008.49 1007.77 1006.73 1006.04 1005.80 1005.92 1006.24 1006.42 1007.37 1007.22 1007.36 1008.29 1008.83 1009.72 1010.73 1012.12 1012.87 1013.68 1014.18 1014.44 1014.74 1015.14 1015.50 1016.03 1016.71 1017.32 1017.82 1018.42 1019.03 1019.48 1019.86 1020.04 1020.36 1020.61 1020.96 1021.20 1021.40 1021.64 1021.74 1021.72 1021.68 1021.60 1021.80
1014.46 1014.48 1014.19 1013.58 1012.31 1010.28 1008.98 1007.84 1007.24 1006.73 1006.29 1006.12 1006.23 1006.90 1008.30 1007.99 1007.82 1008.19 1009.06 1009.83 1010.90 1011.98 1013.05 1013.69 1014.29 1014.77 1015.04 1015.42 1015.83 1016.04 1016.58 1017.28 1017.74 1018.25 1018.99 1019.54 1019.97 1020.23 1020.48 1020.77 1021.10 1021.39 1021.62 1021.79 1021.93 1021.96 1021.93 1021.79 1021.77
1014.15 1014.56 1014.20 1013.64 1012.43 1010.43 1008.87 1008.42 1007.84 1007.24 1006.87 1006.20 1006.33 1006.79 1008.29 1008.25 1008.09 1008.51 1009.68 1010.61 1011.29 1012.29 1013.03 1013.82 1014.35 1014.82 1015.32 1015.78 1016.05 1016.44 1016.58 1017.16 1017.75 1018.19 1018.75 1019.55 1019.98 1020.43 1020.75 1020.95 1021.15 1021.41 1021.72 1021.96 1022.13 1022.18 1022.15 1022.02 1021.90
1013.96 1014.54 1014.31 1013.70 1012.38 1010.71 1008.93 1008.75 1008.03 1007.61 1007.11 1006.83 1006.79 1007.43 1007.72 1007.80 1008.11 1008.86 1010.47 1011.31 1012.05 1012.65 1013.13 1013.73 1014.28 1014.89 1015.37 1015.85 1016.30 1016.70 1016.96 1017.24 1017.76 1018.28 1018.68 1019.38 1020.02 1020.46 1020.88 1021.12 1021.32 1021.48 1021.68 1021.95 1022.21 1022.35 1022.31 1022.22 1022.10
1014.29 1014.49 1014.11 1013.02 1011.91 1011.07 1009.90 1009.42 1009.12 1008.49 1008.11 1007.60 1007.62 1007.93 1007.65 1007.77 1008.13 1008.72 1009.92 1011.29 1012.02 1012.71 1013.27 1013.60 1014.16 1014.72 1015.31 1015.71 1016.33 1016.82 1017.33 1017.55 1017.87 1018.34 1018.76 1019.13 1019.80 1020.30 1020.68 1021.15 1021.49 1021.72 1021.88 1022.09 1022.20 1022.40 1022.45 1022.44 1022.34
1014.13 1014.19 1013.75 1012.73 1011.79 1011.20 1010.66 1010.02 1009.54 1009.34 1008.90 1008.30 1008.15 1008.78 1008.90 1008.41 1008.35 1008.82 1009.47 1010.20 1011.19 1012.05 1012.77 1013.37 1013.97 1014.50 1015.03 1015.48 1016.17 1016.70 1017.29 1017.72 1018.00 1018.33 1018.75 1019.03 1019.50 1020.09 1020.60 1021.09 1021.53 1021.90 1022.16 1022.38 1022.43 1022.52 1022.56 1022.51 1022.64
1014.93 1013.88 1013.33 1012.70 1012.02 1011.60 1011.17 1010.62 1010.28 1009.83 1009.54 1008.59 1008.10 1008.20 1008.82 1009.21 1008.66 1008.56 1009.11 1009.52 1010.69 1011.42 1011.99 1012.73 1013.52 1014.20 1014.70 1015.33 1015.91 1016.42 1016.84 1017.45 1017.80 1018.19 1018.52 1019.01 1019.20 1019.91 1020.48 1020.86 1021.31 1021.68 1022.07 1022.43 1022.52 1022.64 1022.58 1022.54 1022.51
1014.96 1014.43 1013.82 1013.27 1012.87 1012.66 1011.89 1011.55 1011.28 1010.09 1009.70 1009.25 1008.17 1008.23 1008.73 1009.24 1009.26 1008.77 1008.31 1008.76 1009.51 1010.47 1011.06 1011.62 1012.68 1013.70 1014.23 1015.00 1015.50 1016.04 1016.46 1016.93 1017.43 1017.92 1018.23 1018.57 1019.02 1019.35 1019.98 1020.63 1021.05 1021.41 1021.69 1022.06 1022.36 1022.46 1022.56 1022.60 1022.42
1016.00 1015.38 1014.69 1013.78 1013.41 1013.15 1012.73 1012.07 1011.64 1010.22 1010.16 1009.87 1009.29 1008.28 1008.46 1008.93 1008.92 1008.97 1008.62 1008.64 1009.07 1009.78 1010.69 1011.08 1011.71 1012.57 1013.49 1014.50 1014.87 1015.48 1016.02 1016.51 1017.06 1017.52 1017.78 1018.14 1018.45 1019.01 1019.38 1020.07 1020.67 1021.09 1021.28 1021.52 1021.80 1022.12 1022.31 1022.42 1022.32
1016.76 1016.14 1015.52 1014.82 1014.38 1013.74 1013.38 1012.48 1011.47 1010.97 1010.60 1010.30 1009.85 1009.24 1008.48 1008.58 1008.49 1008.45 1008.51 1008.40 1008.69 1008.90 1009.73 1010.41 1010.90 1011.63 1012.41 1013.72 1014.31 1014.92 1015.54 1016.08 1016.58 1017.03 1017.42 1017.78 1017.96 1018.37 1019.27 1019.58 1020.06 1020.46 1020.83 1021.08 1021.35 1021.63 1021.97 1022.13 1021.92
1017.48 1016.69 1015.96 1014.86 1014.32 1013.57 1013.69 1012.17 1011.37 1010.93 1010.74 1010.07 1009.65 1009.21 1009.03 1008.13 1008.26 1007.98 1007.90 1007.82 1007.81 1008.44 1009.02 1010.77 1011.30 1011.77 1011.70 1012.43 1013.65 1014.22 1014.89 1015.48 1016.07 1016.39 1016.91 1017.31 1017.59 1017.65 1018.43 1019.11 1019.59 1019.79 1020.34 1020.74 1020.91 1021.31 1021.78 1021.88 1022.09
1017.94 1017.53 1016.83 1015.57 1014.68 1014.44 1014.15 1013.09 1012.17 1011.39 1011.05 1010.13 1009.58 1008.95 1008.84 1008.57 1007.92 1007.56 1007.36 1007.43 1007.25 1007.47 1008.80 1009.68 1011.68 1011.09 1011.29 1011.62 1012.63 1013.55 1014.16 1014.86 1015.32 1015.82 1016.29 1016.70 1017.09 1017.26 1017.65 1018.17 1018.75 1019.21 1019.63 1020.30 1020.51 1021.02 1021.22 1021.80 1022.07
1018.71 1018.07 1017.32 1016.51 1015.79 1014.43 1014.04 1013.39 1012.42 1011.90 1011.45 1010.93 1010.37 1009.66 1009.06 1008.52 1008.06 1007.72 1007.29 1006.99 1006.88 1006.94 1007.82 1008.46 1009.43 1010.27 1010.55 1010.69 1011.76 1013.08 1013.73 1014.22 1014.51 1015.08 1015.46 1015.99 1016.49 1016.74 1017.22 1017.65 1017.92 1018.49 1019.16 1019.70 1020.24 1020.56 1020.88 1021.26 1021.64
1018.64 1018.45 1017.87 1016.89 1015.94 1015.51 1014.35 1014.09 1012.70 1012.15 1011.47 1011.10 1010.78 1010.11 1009.39 1009.04 1008.17 1007.62 1007.44 1007.42 1006.89 1006.28 1006.66 1007.84 1008.55 1008.87 1009.30 1010.47 1011.25 1011.89 1012.61 1013.26 1013.77 1014.16 1014.60 1015.26 1015.86 1016.21 1016.68 1017.15 1017.45 1017.89 1018.59 1019.15 1019.59 1020.31 1020.73 1021.11 1021.26
1018.73 1018.55 1017.99 1017.22 1016.46 1016.27 1015.68 1014.48 1013.36 1012.45 1011.90 1011.16 1010.62 1010.28 1009.62 1009.05 1008.10 1007.47 1007.26 1007.31 1007.30 1007.06 1006.39 1006.76 1007.19 1007.60 1008.15 1009.02 1009.63 1010.31 1010.98 1012.19 1012.88 1013.35 1014.03 1014.45 1015.04 1015.68 1016.18 1016.59 1016.94 1017.29 1018.00 1018.55 1019.09 1019.52 1020.54 1020.74 1020.93
1019.16 1019.03 1018.69 1018.44 1017.60 1016.78 1016.42 1015.40 1014.17 1012.79 1012.44 1011.54 1010.48 1009.87 1009.38 1008.89 1008.69 1007.87 1007.14 1007.35 1007.26 1007.40 1007.14 1006.42 1006.19 1006.95 1007.37 1008.10 1008.95 1010.02 1010.75 1011.65 1012.46 1012.92 1013.23 1013.66 1014.03 1014.69 1015.19 1015.75 1016.37 1016.79 1017.22 1017.86 1018.31 1018.86 1019.50 1020.31 1020.65
1019.53 1019.33 1019.35 1019.41 1019.50 1018.82 1018.38 1016.53 1015.29 1014.37 1013.35 1012.69 1011.79 1010.94 1010.32 1009.70 1009.24 1009.05 1007.73 1007.45 1007.52 1007.07 1006.87 1007.03 1006.83 1005.90 1006.44 1007.29 1007.98 1008.67 1009.11 1009.93 1010.62 1011.22 1012.00 1012.78 1013.18 1013.73 1014.31 1014.97 1015.59 1016.12 1016.61 1017.15 1017.60 1018.19 1018.84 1019.38 1019.85
1020.47 1020.21 1020.24 1020.30 1020.04 1019.76 1018.45 1018.30 1015.14 1015.41 1015.11 1014.65 1013.91 1013.19 1012.66 1012.08 1011.48 1011.21 1010.79 1008.97 1008.05 1008.16 1007.63 1006.96 1006.58 1006.78 1006.19 1006.18 1006.65 1007.47 1008.03 1008.69 1009.28 1010.27 1011.13 1011.88 1012.55 1012.78 1013.41 1014.05 1014.66 1015.51 1015.90 1016.30 1016.84 1017.55 1017.98 1018.46 1018.72
1020.79 1020.74 1020.80 1020.54 1020.45 1020.07 1019.55 1019.84 1017.92 1017.26 1017.43 1015.83 1015.00 1014.29 1013.72 1013.20 1012.83 1012.46 1011.88 1010.94 1009.73 1009.20 1008.63 1008.11 1007.57 1005.84 1006.17 1006.04 1005.53 1006.03 1006.53 1007.35 1008.12 1008.82 1009.93 1010.79 1011.34 1011.94 1012.49 1012.92 1013.60 1014.19 1015.10 1015.48 1015.92 1016.47 1017.06 1017.46 1017.99
1021.83 1022.32 1022.55 1022.32 1021.67 1021.18 1020.66 1020.04 1019.79 1019.23 1018.03 1017.15 1016.36 1015.68 1014.68 1014.32 1014.13 1013.68 1013.06 1012.22 1011.35 1010.67 1009.62 1008.49 1007.73 1007.19 1005.58 1005.43 1005.31 1005.14 1005.35 1006.08 1006.49 1007.19 1008.17 1009.38 1010.28 1010.88 1011.17 1011.75 1012.53 1013.10 1013.85 1014.54 1015.15 1015.69 1016.18 1016.54 1017.10
1023.27 1023.42 1024.37 1024.32 1023.62 1022.65 1021.34 1019.77 1020.38 1019.64 1018.49 1017.68 1017.12 1016.13 1015.93 1015.41 1015.10 1014.48 1013.89 1013.43 1012.56 1011.26 1010.55 1009.20 1007.88 1006.85 1006.22 1004.77 1004.93 1004.41 1004.29 1004.77 1005.24 1005.70 1006.54 1007.67 1008.43 1009.27 1009.97 1010.84 1011.51 1012.25 1012.84 1013.58 1014.21 1014.78 1015.19 1015.71 1016.11
1023.94 1024.61 1025.07 1025.03 1024.42 1023.55 1021.23 1020.53 1020.45 1018.84 1017.59 1017.06 1017.08 1016.93 1017.18 1016.29 1015.59 1014.93 1014.60 1014.29 1013.56 1012.02 1010.81 1009.51 1007.97 1006.52 1006.13 1005.50 1003.91 1003.46 1003.15 1003.33 1003.53 1004.01 1005.04 1005.97 1006.88 1007.81 1009.02 1009.86 1010.55 1011.20 1011.86 1012.47 1013.23 1013.84 1014.27 1014.68 1015.05
1025.30 1025.25 1025.62 1026.22 1026.15 1024.82 1022.30 1020.80 1020.35 1018.45 1017.62 1017.04 1016.81 1016.28 1016.23 1015.80 1015.37 1015.37 1015.24 1014.55 1014.00 1012.81 1010.97 1009.17 1008.30 1007.59 1007.38 1006.75 1004.16 1003.42 1002.84 1003.00 1003.02 1003.33 1003.53 1004.55 1005.55 1006.76 1007.62 1008.45 1009.48 1010.30 1010.84 1011.40 1012.04 1012.64 1013.26 1013.82 1014.10
1025.57 1026.96 1027.77 1027.79 1027.56 1026.50 1024.53 1021.39 1019.18 1018.84 1018.25 1018.10 1017.70 1016.87 1016.00 1016.23 1016.63 1016.62 1016.19 1015.31 1014.55 1013.04 1011.52 1009.93 1009.00 1008.17 1007.71 1007.30 1005.66 1004.75 1005.52 1003.18 1003.05 1003.00 1003.05 1003.44 1004.63 1005.45 1006.36 1007.22 1007.89 1008.77 1009.58 1010.18 1010.81 1011.19 1011.98 1012.58 1013.13
1027.92 1028.74 1029.21 1029.76 1029.29 1028.35 1026.44 1022.05 1020.07 1019.05 1018.38 1018.17 1017.61 1017.34 1017.37 1017.38 1017.24 1016.93 1016.36 1015.73 1014.76 1013.56 1012.29 1011.08 1010.36 1009.27 1008.49 1007.83 1006.10 1004.60 1001.31 1003.79 1002.88 1002.83 1002.49 1002.61 1003.24 1004.39 1005.32 1006.01 1006.76 1007.40 1008.22 1009.03 1009.46 1009.84 1010.43 1011.26 1011.85
Wind_Speed
10 11 2 3 5 4 4 10 6 6 5 2 5 8 3 2 6 6 7 19 24 17 16 17 22 23 22 20 19 18 17 16 15 16 17 18 17 17 17 16 17 17 18 18 17 16 15 14 13
5 7 1 3 3 1 7 5 7 4 1 4 9 7 7 5 8 12 9 15 24 18 15 15 21 22 23 22 20 19 18 17 15 15 16 17 17 16 16 15 15 16 16 17 16 14 12 11 10
8 5 2 3 3 5 4 4 3 4 8 8 7 4 6 5 9 5 17 17 18 18 12 13 20 21 23 22 20 19 19 18 15 14 15 16 16 16 15 14 14 14 14 16 14 11 9 8 9
4 5 4 2 8 12 6 9 6 6 9 8 5 5 6 6 5 13 18 18 17 16 12 15 16 21 21 23 21 20 19 18 15 14 15 15 16 16 15 12 12 13 14 14 12 8 6 7 7
2 2 2 3 8 10 10 10 4 6 3 3 3 3 5 10 14 25 21 18 18 12 13 12 14 18 21 22 22 20 19 18 17 15 14 14 15 15 14 12 11 12 13 12 10 7 5 5 7
3 1 2 4 8 10 8 8 4 4 4 4 2 1 4 5 11 16 19 19 18 14 13 12 13 16 18 20 21 21 20 18 18 17 14 14 13 14 13 13 12 12 12 10 9 7 5 4 5
4 2 5 7 12 17 10 10 8 5 6 4 1 1 1 9 5 12 16 17 18 17 13 14 13 13 13 16 18 20 20 18 18 17 15 14 13 12 13 13 13 12 11 10 9 8 5 3 2
2 2 6 5 8 17 11 9 7 3 4 5 2 1 4 2 7 10 16 16 16 14 15 14 13 11 11 11 15 17 20 18 18 18 17 14 14 12 11 12 13 13 12 10 9 8 5 2 5
3 2 4 7 9 12 16 5 8 6 2 5 5 10 11 9 8 9 16 13 12 11 14 13 13 10 10 10 11 14 17 18 17 16 17 13 7 9 9 8 11 12 11 10 8 7 5 1 3
4 1 7 9 12 10 11 9 8 7 9 7 6 5 10 9 7 12 14 13 12 13 12 13 12 11 11 10 11 9 9 9 9 9 11 8 8 7 9 9 10 10 10 9 8 6 4 3 2
6 8 9 15 15 12 10 12 8 9 7 8 7 6 6 3 6 8 10 18 17 16 12 13 13 12 12 9 8 5 5 5 6 9 9 7 8 6 4 5 4 4 6 3 4 3 2 4 3
6 8 9 9 11 12 9 8 11 5 6 9 9 5 5 7 8 8 9 15 18 18 17 16 14 13 11 9 9 8 7 6 7 8 9 5 7 6 6 5 6 5 4 5 4 3 4 5 6
5 7 15 16 15 12 14 9 8 15 9 9 16 8 5 5 7 5 8 14 16 18 20 20 18 14 11 12 9 9 9 8 8 8 9 6 6 8 8 6 6 5 5 5 5 5 4 4 5
9 14 14 12 13 10 11 11 10 19 10 12 10 15 9 7 9 4 8 5 14 16 17 19 20 19 13 11 13 10 9 9 8 8 10 7 7 8 8 8 7 6 6 5 6 5 5 5 5
12 12 15 12 9 12 12 14 18 13 16 19 16 13 15 7 8 9 8 8 14 16 19 21 21 20 19 13 12 10 9 10 8 9 10 10 9 11 7 8 8 7 7 7 6 6 4 4 2
8 6 5 2 9 11 10 21 18 18 14 19 20 16 14 17 11 9 8 9 7 13 19 9 13 19 20 14 12 10 10 9 7 9 10 11 8 14 10 9 8 8 7 6 6 5 5 5 4
4 6 11 12 8 10 5 12 10 12 15 17 18 17 13 11 11 13 10 8 10 8 19 21 20 22 21 18 14 10 12 9 10 9 10 13 9 13 11 10 9 9 8 7 7 4 6 4 4
9 14 15 15 13 19 15 13 14 12 13 10 10 8 9 9 10 9 10 12 11 9 18 27 21 23 21 15 13 9 10 9 11 10 11 14 9 12 8 7 10 7 7 7 5 6 3 4 5
8 11 13 16 15 13 18 12 18 14 14 10 9 9 9 8 8 7 5 7 17 15 9 21 22 22 17 12 11 13 11 11 10 10 15 14 12 9 11 6 9 7 7 9 8 4 6 4 4
9 12 15 14 15 16 17 19 18 16 11 9 10 11 10 8 11 13 11 8 6 13 6 18 21 22 19 16 15 13 15 11 10 11 11 15 16 12 11 9 8 10 7 9 9 7 4 4 5
11 11 13 18 19 14 10 13 15 19 19 19 17 16 15 14 10 18 18 13 9 7 9 14 22 22 22 21 15 9 11 6 10 10 10 14 18 16 14 14 8 11 9 10 11 9 10 9 4
12 9 14 15 15 8 13 15 16 13 13 16 17 16 18 19 15 11 22 18 15 10 6 2 14 23 23 23 18 22 17 15 11 12 11 13 19 19 18 15 13 10 10 9 11 10 8 7 10
8 14 7 10 14 9 15 7 16 8 9 19 22 17 15 15 17 19 20 25 18 17 15 4 2 15 20 24 22 20 19 14 13 12 15 14 16 19 19 16 16 9 10 11 13 12 12 6 9
13 15 13 10 4 5 7 5 6 6 9 17 20 19 15 11 14 15 17 21 21 17 17 16 9 8 19 21 25 25 25 20 16 16 14 12 13 14 18 19 17 17 11 12 11 14 16 13 8
14 11 5 5 5 3 6 8 2 12 13 16 16 22 19 14 14 14 18 20 20 20 19 18 14 14 14 23 23 25 25 24 23 20 16 17 12 14 19 21 18 15 14 13 12 13 15 15 13
12 5 1 5 3 10 14 7 3 4 2 7 10 12 17 16 15 16 18 18 20 21 18 19 19 14 15 22 25 24 25 19 18 19 16 15 15 16 19 18 18 19 18 13 14 12 12 15 14
8 5 8 5 4 6 5 6 5 9 7 8 9 12 10 12 17 19 19 18 19 21 21 20 18 14 13 17 24 25 25 25 23 23 19 16 18 15 18 21 19 19 17 18 16 13 15 15 16
10 12 4 5 4 5 6 2 3 13 17 17 15 16 16 18 20 20 19 20 18 19 21 18 17 16 16 21 12 18 23 25 23 21 21 20 19 20 18 19 20 18 19 18 17 16 15 15 13
15 5 6 2 3 4 7 5 3 16 17 13 12 16 15 14 14 16 18 18 18 19 21 20 20 20 17 16 15 6 24 21 20 18 22 17 19 21 20 19 19 20 20 20 19 19 18 17 17
13 5 3 3 7 2 5 8 8 20 23 13 13 14 13 10 13 15 17 19 19 21 21 20 19 18 17 15 19 14 11 20 16 18 19 21 19 19 21 19 21 19 21 20 21 22 19 19 19
Wind_Direction
326 313 153 345 45 81 268 269 245 346 25 33 75 71 337 50 89 137 85 118 127 136 142 142 135 134 130 129 128 125 121 114 111 108 107 105 106 105 105 107 106 105 102 101 99 99 101 99 88
311 312 93 270 102 272 263 308 68 61 105 32 65 26 48 34 67 110 87 130 134 136 141 146 137 137 133 134 132 130 126 120 116 114 111 110 109 108 110 108 108 108 106 105 102 103 105 98 97
298 204 51 154 198 205 238 31 31 84 51 31 33 58 47 81 45 78 122 129 128 127 138 145 139 138 137 136 135 133 129 124 121 119 115 115 113 111 112 112 112 110 109 107 107 108 102 97 88
319 341 334 104 262 270 259 284 297 46 19 46 14 35 69 112 104 117 126 127 121 126 128 143 140 138 141 138 137 135 132 128 127 123 121 121 118 119 117 115 114 113 109 109 110 109 105 88 86
220 277 239 244 260 278 274 265 225 102 64 45 70 47 78 89 108 132 136 131 126 112 123 139 137 138 141 142 140 138 136 133 131 127 125 124 125 125 121 117 111 110 107 105 104 97 94 82 55
329 133 336 262 271 274 295 358 40 55 91 327 8 139 71 99 107 131 137 134 122 123 131 137 133 140 144 146 143 140 139 138 135 132 130 128 128 128 125 119 115 112 107 101 99 99 104 103 70
191 36 251 280 288 299 309 348 38 4 25 320 320 102 91 39 93 113 131 117 123 125 127 143 156 144 141 147 146 144 142 143 140 138 134 133 131 130 130 127 123 117 111 105 96 88 69 43 9
231 158 290 280 287 289 305 329 332 6 285 280 356 184 135 134 85 101 104 115 117 126 132 145 155 158 154 151 146 148 145 144 144 142 137 139 137 134 132 132 132 128 121 113 107 95 78 3 324
307 325 270 264 274 283 301 337 321 341 6 333 340 115 147 143 129 109 112 115 116 128 138 141 154 150 154 150 151 149 149 146 145 145 139 135 143 138 140 140 141 137 135 133 129 122 123 201 292
166 192 241 255 276 290 314 352 332 10 348 326 20 58 142 149 153 141 140 140 141 145 149 147 149 153 155 161 154 150 157 153 152 151 152 147 147 147 154 148 146 142 143 145 141 144 169 229 264
242 234 251 274 283 295 304 323 327 350 324 295 308 84 341 148 153 146 161 151 157 155 156 154 156 157 159 160 161 155 154 157 153 153 161 154 154 157 131 141 142 138 147 151 146 162 212 229 255
343 287 248 258 289 313 306 316 322 296 261 287 297 335 54 309 165 175 172 168 151 161 161 158 160 159 169 148 169 164 161 167 163 168 170 157 160 148 147 153 159 157 163 176 188 196 218 231 248
309 334 326 318 319 314 327 334 309 293 310 305 307 318 323 317 304 263 194 179 164 164 167 164 160 165 170 156 170 169 172 169 169 166 183 162 167 157 152 160 164 171 168 175 192 204 214 230 247
322 326 318 313 309 309 312 310 329 287 319 317 306 298 290 265 269 273 287 179 177 168 172 168 166 163 168 167 173 171 172 170 166 172 189 180 164 161 165 164 172 177 179 184 183 193 207 220 218
313 307 300 286 299 295 315 289 265 281 288 280 277 277 290 279 283 259 231 259 181 174 176 176 171 169 166 168 172 168 175 174 174 175 188 192 176 171 158 170 174 183 188 188 186 193 185 206 209
299 286 314 325 247 251 200 260 258 255 255 252 250 249 257 281 263 267 269 249 218 188 176 151 179 179 174 156 177 174 176 175 173 178 186 194 189 179 162 174 182 181 182 194 184 176 179 187 176
286 280 299 304 314 341 34 290 316 289 268 263 258 234 229 241 273 265 257 246 255 191 168 158 202 183 181 169 170 174 174 177 182 178 184 196 187 185 177 175 187 178 183 187 190 178 157 165 191
323 325 321 317 325 322 318 302 311 310 321 310 314 317 265 228 249 263 265 250 242 245 177 180 182 184 179 170 165 174 177 181 185 182 185 188 193 183 182 174 188 169 174 174 169 162 173 162 186
318 312 307 307 312 313 309 307 309 308 306 310 304 307 305 297 280 297 293 292 265 241 181 189 182 180 171 174 168 181 182 187 189 185 183 184 192 180 190 178 184 177 168 177 166 161 175 215 149
318 312 304 308 316 327 323 313 303 304 300 299 301 304 302 303 311 303 296 291 300 294 210 188 191 179 181 179 183 183 184 189 184 189 178 184 188 183 187 192 186 189 164 173 173 154 167 206 175
321 306 321 328 332 312 309 306 311 318 317 311 303 281 278 270 273 294 294 296 293 290 294 204 190 184 184 186 183 182 183 147 190 186 181 188 185 188 189 196 183 191 179 183 184 175 172 200 195
302 325 313 338 344 309 325 299 293 294 300 333 329 341 334 320 330 327 304 302 293 286 287 115 229 190 188 184 184 186 182 188 191 196 193 184 188 193 192 192 195 190 193 181 187 184 186 164 208
311 339 338 299 288 310 298 295 278 313 9 355 351 5 13 10 12 6 351 339 342 3 332 285 203 222 200 188 187 185 191 192 191 192 193 188 192 193 193 189 195 188 199 187 183 184 187 192 203
326 346 319 292 237 260 328 360 320 27 355 350 353 349 7 20 12 4 354 344 341 352 345 340 310 224 213 204 192 191 193 189 193 194 194 192 190 193 193 195 196 198 196 194 187 188 196 196 204
359 342 337 336 1 236 13 302 37 8 10 352 357 339 1 7 7 1 359 346 335 340 337 329 335 323 240 210 203 199 195 194 197 195 191 196 188 194 198 194 195 199 194 198 192 190 197 201 199
321 333 183 296 308 296 307 263 72 230 184 40 335 1 355 349 355 359 357 346 336 333 334 322 314 318 315 222 215 207 197 196 202 194 192 200 197 197 198 196 195 199 198 193 198 197 199 201 207
313 9 297 262 276 276 237 77 100 312 21 11 6 20 350 1 354 357 352 348 337 333 334 320 304 325 322 309 221 211 203 200 199 200 194 196 198 196 192 197 198 198 198 196 196 204 204 200 206
338 313 5 352 333 304 301 305 182 18 8 5 12 8 6 3 359 360 350 348 341 339 334 346 351 355 354 346 271 255 207 207 203 200 199 201 197 196 189 193 197 200 202 199 195 205 205 206 207
322 34 346 305 3 309 344 280 235 3 355 360 16 354 359 3 2 356 347 348 343 346 345 350 347 347 353 351 320 228 290 217 211 205 204 198 191 195 194 192 194 201 202 202 202 204 205 206 209
61 9 7 94 312 266 248 259 276 341 336 348 8 355 354 351 360 351 346 352 348 356 346 343 347 345 348 352 340 217 299 256 215 216 210 207 190 190 196 196 203 203 207 204 204 206 204 207 208